Back to catalog

STARLINK-34229

AliveCommunicationsVLEO
NORAD 64250·PAYLOAD·🇺🇸 United States

Launched Jun 3, 2025 from Cape Canaveral Space Force Station

Loading…

Next Passes (next 24 hours)

TLE

FreshSource: CelesTrak SupGP

Epoch: Sep 14, 2026, 20:55 UTC

1 64250C 25119T   26257.87201389 -.00028900  00000+0 -10468-2 0  2573
2 64250  43.0033 318.9362 0001591 273.6938 279.6912 15.27590444    16

Track STARLINK-34229 in real time with AllMySat

Download on the App Store